Location: Dackenheim
(49.5215°N, 8.1854°E)
Time: 07:10:16
(UTC+00:00)

Meteor 1-14 Rocket - Pass Details

Date: 19 May 2025
Orbit: 833 x 917 km, 81.3° (Epoch: 22 June)

Event Time Altitude Azimuth Distance (km) Brightness Sun altitude
Rises 21:12:17 0° 348° (NNW) 3,408 8.8 -14.6°
Reaches altitude 10° 21:14:41 10° 350° (N) 2,477 7.8 -14.8°
Maximum altitude 21:20:19 79° 77° (ENE) 878 4.2 -15.3°
Enters shadow 21:23:57 23° 162° (SSE) 1,740 5.2 -15.6°
